Location: Unspecified
(34.4950°S, 58.5160°W)
Time: 07:52:54
(UTC+00:00)

Tiangong - Visible Passes

Search period start: 09 February 2026 00:00
Search period end: 19 February 2026 00:00
Orbit: 386 x 393 km, 41.5° (Epoch: 8 February)

Date Brightness Start Highest point End Pass type
(mag) Time Alt. Az. Time Alt. Az. Time Alt. Az.
12 Feb 0.7 08:09:25 10° NNE 08:10:25 11° NE 08:11:26 10° ENE visible
13 Feb -1.2 08:45:39 10° NW 08:48:44 42° NNE 08:51:51 10° ESE visible
14 Feb -0.3 07:50:15 22° NNE 07:50:32 23° NE 07:53:11 10° E visible
15 Feb -2.1 08:27:05 23° WNW 08:28:56 87° NNE 08:32:12 10° ESE visible
16 Feb -0.6 07:31:31 34° E 07:31:31 34° E 07:33:43 10° ESE visible
17 Feb -1.6 08:08:09 37° WSW 08:09:03 51° SSW 08:12:15 10° ESE visible
18 Feb 0.4 07:12:27 23° ESE 07:12:27 23° ESE 07:13:49 10° ESE visible
18 Feb -0.4 08:44:55 10° WSW 08:47:45 26° S 08:50:35 10° SE visible
